Weather History for Du Bois, PA

Change the Weather History Date:

Thursday, November 8, 2012

  Actual Average Record
Temperature  
Mean Temperature 34 °F 42 °F  
Max Temperature 44 °F 50 °F 68 °F (2011)
Min Temperature 24 °F 34 °F 16 °F (1976)
Degree Days  
Heating Degree Days 31 23  
Month to date heating degree days 247 175  
Since 1 July heating degree days 899 918  
Cooling Degree Days 0 0  
Month to date cooling degree days 0 0  
Year to date cooling degree days 548 362  
Moisture  
Dew Point 22 °F    
Average Humidity 62    
Maximum Humidity 88    
Minimum Humidity 36    
Precipitation  
Precipitation 0.00 in 0.12 in 1.99 in (1997)
Month to date precipitation 0.10 0.95  
Sea Level Pressure  
Sea Level Pressure 30.09 in    
Wind  
Wind Speed 8 mph (NW)    
Max Wind Speed 16 mph    
Max Gust Speed 21 mph    
Visibility 10 miles    
Events      
T = Trace of Precipitation, MM = Missing Value Source: NWS Daily Summary

Daily Weather History Graph

Daily Weather History Graph

Search for Another Location

Airport:

Trip Planner

Search our weather history database for the weather conditions in past years. The results will help you decide how hot, cold, wet, or windy it might be!

Date:

Astronomy

Nov. 08, 2012 Rise Set
Actual Time 6:55 AM EST 5:02 PM EST
Civil Twilight 6:26 AM EST 5:31 PM EST
Nautical Twilight 5:53 AM EST 6:04 PM EST
Astronomical Twilight 5:21 AM EST 6:36 PM EST
Moon 12:45 AM EST (11/8) 1:45 PM EST (11/8)
Length of Visible Light 11h 05m
Length of Day
10h 06m
Waning Crescent, 33% of the Moon is Illuminated
Nov 8
Waning Crescent
Nov 13
New
Nov 20
First Quarter
Nov 28
Full
Dec 6
Last Quarter

Hourly Weather History & Observations

Time (EST) Temp. Windchill Dew Point Humidity Pressure Visibility Wind Dir Wind Speed Gust Speed Precip Events Conditions
12:56 AM 28.0 °F 22.8 °F 19.0 °F 69% 30.02 in 10.0 mi NNW 4.6 mph - N/A   Clear
2:56 AM 27.0 °F 18.0 °F 21.0 °F 78% 30.02 in 10.0 mi North 9.2 mph - N/A   Clear
3:56 AM 26.1 °F 19.4 °F 21.0 °F 81% 30.04 in 10.0 mi North 5.8 mph - N/A   Clear
4:56 AM 26.1 °F 17.6 °F 21.0 °F 81% 30.04 in 10.0 mi North 8.1 mph - N/A   Clear
5:56 AM 25.0 °F 17.1 °F 21.0 °F 85% 30.05 in 10.0 mi NNW 6.9 mph - N/A   Clear
6:56 AM 24.1 °F 17.0 °F 21.0 °F 88% 30.07 in 10.0 mi NNW 5.8 mph - N/A   Clear
7:56 AM 26.1 °F 17.6 °F 21.9 °F 84% 30.09 in 10.0 mi NNW 8.1 mph - N/A   Clear
8:56 AM 28.9 °F 19.2 °F 23.0 °F 78% 30.10 in 10.0 mi North 11.5 mph - N/A   Clear
9:56 AM 32.0 °F 22.5 °F 21.0 °F 64% 30.12 in 10.0 mi NNW 12.7 mph - N/A   Clear
10:56 AM 36.0 °F 28.5 °F 21.0 °F 55% 30.12 in 10.0 mi NNW 10.4 mph - N/A   Clear
11:56 AM 39.9 °F 32.9 °F 19.9 °F 45% 30.09 in 10.0 mi WNW 11.5 mph - N/A   Clear
12:56 PM 42.1 °F 37.7 °F 18.0 °F 38% 30.07 in 10.0 mi Variable 6.9 mph 16.1 mph N/A   Clear
1:56 PM 43.0 °F 36.4 °F 19.0 °F 38% 30.06 in 10.0 mi West 12.7 mph - N/A   Clear
2:56 PM 43.0 °F 36.4 °F 21.9 °F 43% 30.06 in 10.0 mi WNW 12.7 mph 19.6 mph N/A   Clear
3:56 PM 43.0 °F 35.7 °F 21.0 °F 42% 30.07 in 10.0 mi WNW 15.0 mph 19.6 mph N/A   Clear
4:56 PM 39.9 °F 35.1 °F 21.0 °F 47% 30.08 in 10.0 mi WNW 6.9 mph - N/A   Clear
5:56 PM 37.0 °F 31.6 °F 21.9 °F 54% 30.11 in 10.0 mi WNW 6.9 mph - N/A   Clear
6:56 PM 36.0 °F 29.0 °F 21.9 °F 57% 30.13 in 10.0 mi NW 9.2 mph - N/A   Clear
7:56 PM 34.0 °F 28.0 °F 23.0 °F 64% 30.14 in 10.0 mi WNW 6.9 mph - N/A   Clear
8:56 PM 33.1 °F 25.5 °F 24.1 °F 70% 30.15 in 10.0 mi NW 9.2 mph - N/A   Clear
9:25 PM 32.0 °F 27.5 °F 24.8 °F 75% 30.09 in 10.0 mi WNW 4.6 mph - N/A   Mostly Cloudy
9:56 PM 32.0 °F 27.5 °F 25.0 °F 75% 30.14 in 10.0 mi WNW 4.6 mph - N/A   Overcast
10:56 PM 30.0 °F 26.5 °F 24.1 °F 79% 30.13 in 10.0 mi West 3.5 mph - N/A   Overcast
11:56 PM 32.0 °F 28.7 °F 26.1 °F 79% 30.13 in 10.0 mi West 3.5 mph - N/A   Overcast